Dewpoint
66 65 64 64 64 64 62 62 62 63 63 62 62 62 61 61 61 61 61 60 60 61 62 62 63 64 64 65 66 66 64 63 61 60 61 60 58 58 58 58 58 58 58
66 65 64 64 64 63 62 62 62 62 62 62 61 61 60 60 59 59 59 59 59 59 60 61 61 62 62 63 64 64 65 64 62 59 59 56 56 57 57 56 56 56 57
66 65 65 64 63 63 62 62 62 62 61 61 61 60 59 59 58 58 58 58 58 58 59 59 60 60 60 61 61 61 62 62 62 59 57 57 56 56 55 55 54 53 54
66 65 65 64 63 63 63 62 62 62 61 60 60 60 60 59 57 57 56 56 55 55 56 57 58 59 60 60 60 60 61 60 59 58 56 56 55 56 55 53 52 52 51
66 66 65 65 64 64 63 63 62 61 60 59 58 58 58 58 59 56 55 55 54 51 52 53 56 59 60 60 59 59 60 59 58 57 56 55 54 54 54 54 51 52 52
65 66 65 65 64 64 63 62 62 60 59 58 56 55 56 57 59 59 57 55 52 48 49 48 49 52 55 56 57 58 58 59 58 57 57 56 55 56 55 53 51 52 51
65 66 66 65 64 64 63 62 61 59 59 57 55 54 55 57 57 57 56 53 51 50 45 43 42 45 49 51 51 51 52 55 57 58 57 56 56 56 55 53 52 53 52
66 66 66 66 64 64 63 62 61 59 58 56 53 52 54 54 54 55 53 52 51 50 50 47 44 44 44 47 47 45 47 50 50 50 52 52 57 57 55 54 54 52 52
63 64 64 65 64 64 63 62 62 59 57 55 52 51 51 51 52 53 53 51 49 48 48 49 50 47 45 42 43 44 45 45 45 46 47 49 53 53 54 54 53 51 50
60 60 60 61 63 64 64 63 61 59 56 52 50 49 48 47 50 51 51 49 47 47 45 44 46 50 46 47 46 44 42 44 44 44 42 43 44 46 46 47 49 51 51
58 59 59 59 61 62 64 63 60 57 54 51 49 47 46 46 48 52 50 49 47 45 44 42 41 44 48 46 45 45 45 49 48 46 42 41 43 43 43 45 47 49 49
57 57 58 58 59 62 62 60 58 55 52 50 49 48 49 47 46 51 53 50 46 45 43 39 40 37 37 38 38 41 43 41 41 46 42 39 39 42 44 45 47 46 46
56 56 56 56 57 59 60 58 56 54 53 51 51 50 49 48 47 44 47 46 43 39 37 40 37 36 36 40 39 37 40 42 42 43 44 41 36 37 44 47 48 46 45
55 54 54 54 54 55 56 57 56 54 53 52 51 50 48 43 44 44 42 41 40 41 39 38 37 38 39 39 40 39 41 38 36 36 36 37 39 39 38 40 41 43 44
54 53 52 52 52 51 49 51 53 52 53 52 52 51 47 43 43 42 43 42 38 39 40 41 41 42 41 41 40 39 38 36 34 34 33 33 33 31 31 35 36 36 39
52 51 51 51 50 50 50 49 45 47 50 51 51 50 48 44 42 40 40 39 37 38 37 37 40 38 35 35 36 38 38 36 36 36 34 33 32 32 32 33 35 35 34
51 50 50 50 49 49 49 49 49 45 43 45 46 46 45 44 41 39 37 37 36 33 34 37 39 36 35 36 36 36 35 36 38 37 36 35 33 33 33 34 34 33 33
50 49 49 48 48 48 47 47 47 47 47 45 41 43 43 41 38 36 35 34 34 38 37 37 37 36 36 36 37 37 37 36 36 37 36 36 35 35 35 35 34 33 33
49 49 48 48 47 46 45 44 44 43 42 42 42 40 38 37 36 36 34 30 35 35 36 37 38 38 36 36 37 38 38 36 36 36 36 36 36 35 35 34 34 32 33
50 49 48 48 47 46 45 42 40 39 39 38 37 38 38 36 35 33 33 30 30 33 34 36 37 40 40 38 38 38 37 36 37 36 36 36 37 37 35 35 35 34 34
51 51 50 49 48 47 46 45 43 42 40 39 37 37 35 33 31 30 29 31 32 33 34 35 36 38 38 38 39 38 37 37 37 37 37 37 37 35 36 36 36 36 35
51 51 51 50 49 49 49 48 48 46 45 43 41 39 36 35 32 33 35 36 36 35 36 37 36 35 36 38 39 39 38 38 38 37 37 37 37 36 36 35 34 34 34
42 44 47 47 46 44 45 46 47 46 45 44 44 42 39 38 37 35 36 38 40 39 39 38 38 36 35 35 35 34 35 35 35 36 37 38 37 36 35 35 34 33 33
36 37 38 38 39 39 39 39 40 41 42 41 40 40 40 39 38 41 41 38 37 36 36 35 34 32 28 26 24 23 26 30 33 34 35 36 36 37 38 38 37 36 34
38 39 40 41 42 42 43 41 39 41 40 40 39 41 41 42 41 39 37 35 33 32 30 28 24 22 21 20 19 20 24 25 26 30 32 33 34 35 35 35 36 36 36
44 42 42 42 42 41 39 39 42 42 41 41 41 41 40 40 40 38 36 34 30 26 24 23 22 21 20 19 20 22 23 24 23 24 22 20 19 19 21 26 29 33 35
Wind_Speed
14 9 10 11 11 8 7 7 9 10 10 11 11 12 11 11 11 12 12 12 15 13 12 12 11 9 8 5 1 2 2 3 7 4 4 4 6 11 11 13 12 13 14
16 12 11 12 12 9 7 7 9 11 10 10 11 12 12 12 13 13 14 13 15 15 14 13 12 9 10 9 7 4 2 4 4 8 4 4 7 9 11 11 10 12 11
11 13 10 11 10 7 6 8 9 11 10 11 12 13 13 13 13 13 13 14 15 13 12 13 12 11 12 8 9 7 5 6 6 7 5 3 4 5 9 10 10 10 10
11 10 9 12 11 9 6 7 7 9 10 11 10 10 11 12 12 12 13 14 14 14 14 14 13 13 11 11 10 9 10 10 10 11 8 7 4 5 5 5 8 9 8
10 10 10 12 12 10 8 7 7 8 9 10 10 10 9 9 7 11 12 12 12 14 14 13 14 15 17 14 10 9 9 10 10 10 7 5 4 3 2 2 4 4 4
10 11 10 13 14 14 11 9 8 10 8 9 8 9 9 6 6 7 8 10 11 14 13 12 12 15 15 18 18 19 12 8 9 6 5 5 4 2 3 4 5 1 1
13 9 10 14 16 15 14 11 10 10 9 9 8 7 8 7 9 11 10 10 11 11 12 13 13 12 13 13 17 19 19 18 13 8 9 5 3 2 5 4 3 1 2
11 12 11 14 16 15 15 13 11 10 11 9 8 6 8 7 10 13 13 10 11 10 9 9 12 12 12 13 15 17 15 15 14 12 11 7 5 3 3 2 4 5 4
9 9 6 7 13 15 14 13 12 12 11 10 7 7 9 6 5 10 11 9 9 9 8 8 5 8 9 10 13 13 12 11 11 15 15 16 15 12 7 3 2 2 1
6 6 4 3 6 11 13 13 11 13 12 11 10 7 8 7 6 6 7 7 8 6 6 8 10 5 7 7 8 7 8 4 4 6 8 11 10 9 10 5 1 4 1
7 6 4 4 2 4 10 12 15 14 14 10 10 7 9 7 8 7 8 4 5 5 6 7 6 8 11 9 6 4 1 2 3 4 5 5 6 7 7 8 6 1 2
7 8 8 7 6 2 13 14 15 15 14 11 8 8 6 7 10 9 9 7 6 7 6 5 5 7 11 9 8 8 6 3 2 2 1 3 4 4 4 5 5 4 2
6 8 7 7 8 7 13 16 15 14 13 10 7 7 5 5 8 13 12 9 10 9 7 5 4 7 8 10 13 11 9 7 5 3 1 2 2 4 5 4 2 2 1
6 6 7 9 10 10 11 10 13 13 12 10 8 7 5 6 6 6 8 9 8 9 5 5 4 7 7 6 6 9 7 5 4 3 3 3 3 3 4 4 4 5 4
6 5 6 9 10 12 13 9 11 7 8 9 7 8 8 6 5 6 6 7 4 4 4 4 1 2 2 3 4 4 5 4 4 3 3 5 5 4 4 3 2 3 4
8 6 5 7 8 10 12 13 16 11 10 9 8 6 3 7 8 7 6 5 3 2 3 2 2 3 5 4 4 4 3 3 4 4 4 5 5 5 6 4 3 4 6
8 7 6 7 8 10 10 11 13 8 12 12 9 9 7 9 7 5 4 4 3 1 3 3 5 3 2 2 2 2 1 2 2 3 4 4 4 4 5 6 5 5 6
10 11 10 9 10 10 9 9 9 9 8 5 5 5 7 7 6 4 3 3 2 3 2 4 4 4 3 2 1 1 2 2 2 2 3 3 3 4 6 5 5 6 6
13 12 11 10 9 9 8 8 7 8 7 6 4 3 4 5 4 2 1 2 3 2 2 3 4 4 5 4 3 3 4 4 3 3 4 4 4 5 7 6 6 6 6
10 12 11 10 9 8 8 7 5 5 5 5 5 5 5 3 4 4 3 3 3 3 3 3 4 4 5 4 3 4 5 5 5 5 5 5 5 5 7 8 8 9 8
11 11 12 10 9 8 7 8 6 6 5 5 5 5 8 5 5 4 4 4 4 4 5 5 3 3 3 3 3 3 4 5 5 5 6 7 6 8 7 8 9 9 9
13 13 12 12 11 11 11 8 9 8 7 7 6 6 11 8 6 5 4 4 4 6 5 6 4 1 2 3 3 2 2 3 4 6 7 7 8 9 9 10 10 10 10
13 13 13 12 12 10 8 9 11 9 11 11 11 12 10 10 8 6 3 2 2 3 5 5 6 7 7 7 7 6 5 5 5 6 7 8 8 7 7 9 10 12 12
13 14 12 11 11 10 10 9 7 7 6 4 5 6 6 5 4 3 5 6 6 7 8 10 10 9 8 8 8 8 7 5 5 5 6 7 7 8 8 9 9 11 11
13 12 11 13 12 11 9 9 7 6 6 6 7 7 8 10 7 7 8 9 9 10 10 10 9 10 10 11 11 10 10 10 9 6 4 5 7 8 8 9 10 10 11
13 14 14 13 13 12 11 11 9 8 8 8 8 8 8 9 11 10 10 10 9 9 9 8 8 9 9 9 9 9 9 10 10 12 8 8 9 8 9 9 10 9 10
Wind_Direction
125 121 128 124 113 109 106 84 73 73 66 62 56 49 50 51 44 56 60 57 59 50 44 54 50 45 52 44 83 187 173 102 132 90 88 96 69 86 77 69 62 65 64
130 158 160 135 124 129 122 102 99 90 79 76 68 62 52 55 58 57 63 59 65 57 46 49 43 40 48 45 59 65 171 116 131 137 113 87 85 77 84 80 67 61 60
154 161 153 140 130 134 131 120 112 103 93 80 74 70 66 57 58 61 65 65 68 61 50 50 45 48 46 41 49 57 66 97 99 139 118 94 96 90 87 74 65 57 45
168 161 165 153 152 150 134 135 132 116 107 94 83 80 74 68 62 69 73 68 65 59 53 51 46 45 47 49 56 56 72 85 96 108 96 101 100 92 86 98 76 58 54
178 179 172 167 165 152 153 153 146 126 111 104 99 81 73 72 73 81 75 65 61 61 56 47 42 50 52 54 59 56 76 89 93 99 97 104 104 120 111 104 88 93 65
211 200 176 173 167 163 161 161 153 132 114 109 97 91 83 73 82 102 83 72 68 61 63 57 52 48 54 59 63 60 56 81 94 96 95 92 113 110 121 139 138 144 77
234 211 186 171 182 178 160 153 157 140 125 117 106 96 87 85 97 107 93 79 71 65 64 63 60 53 59 67 61 59 54 55 63 92 88 63 78 136 148 150 164 137 131
224 207 192 192 180 169 155 159 160 150 136 129 113 95 92 74 100 106 103 90 78 62 54 58 69 61 57 74 75 68 59 56 60 73 76 57 59 73 121 148 166 117 104
189 181 131 160 182 165 166 165 161 149 135 134 127 112 99 74 84 116 110 103 92 76 59 45 63 79 68 78 83 83 76 67 62 71 69 61 66 65 64 77 84 146 173
167 125 100 137 150 163 176 167 156 141 136 128 117 107 98 82 53 148 125 119 104 99 73 48 39 81 95 80 91 91 90 90 60 55 47 48 53 54 49 45 307 253 255
114 109 98 69 80 172 171 153 147 144 132 127 116 103 82 61 50 149 143 119 119 104 83 63 38 55 86 82 81 66 63 155 75 83 67 52 52 51 44 34 29 336 230
115 106 82 59 40 91 139 134 132 136 134 133 129 102 76 62 52 74 132 110 117 110 100 88 66 77 67 65 62 52 60 143 114 118 79 29 24 29 23 10 12 39 46
104 93 94 84 76 88 131 136 134 138 142 149 156 127 106 73 70 71 93 103 105 104 108 96 92 102 93 69 53 58 63 69 79 82 135 321 326 320 316 326 317 322 311
114 91 82 91 90 86 93 115 137 145 150 159 151 139 134 110 98 96 92 93 90 94 92 82 92 85 66 63 56 47 52 44 43 37 1 333 324 332 338 356 333 342 315
116 99 99 98 100 97 84 85 114 98 144 157 154 157 153 149 137 106 109 102 104 120 116 89 89 69 44 44 48 41 35 37 37 20 357 346 342 346 354 345 323 319 299
139 133 127 117 113 110 111 94 59 79 87 98 119 142 103 124 125 107 99 104 86 160 94 114 107 83 73 54 37 28 30 24 20 2 346 342 336 340 344 344 341 316 299
149 147 147 146 136 129 125 129 123 78 76 80 92 104 126 144 131 117 100 107 82 81 106 120 147 146 120 77 50 32 31 7 346 348 342 335 332 337 342 332 327 331 316
155 158 159 155 142 135 139 140 146 145 137 123 65 96 115 125 116 107 99 104 122 71 112 165 181 181 180 206 219 238 288 303 330 334 337 333 329 319 314 305 306 310 312
162 160 154 140 132 129 126 129 131 126 126 130 131 109 110 117 115 103 79 172 164 178 201 225 237 228 232 249 254 250 258 273 289 302 301 299 314 301 297 286 294 285 291
171 161 151 147 148 152 148 137 140 140 138 143 157 171 167 158 190 195 198 190 203 224 236 249 250 238 242 254 278 279 279 282 286 282 285 288 293 280 290 291 282 283 286
178 174 176 170 173 185 184 173 196 195 193 200 203 198 187 175 176 187 199 214 241 265 269 265 273 241 218 239 245 249 274 293 297 294 290 288 280 282 276 282 287 283 275
184 186 191 201 191 202 212 205 217 226 236 240 236 232 206 212 202 200 220 247 268 277 268 265 232 148 63 61 50 4 340 335 338 328 312 302 295 290 288 288 288 287 285
193 195 197 204 207 211 210 213 228 233 244 241 229 225 210 214 212 220 255 325 27 35 39 75 102 88 74 73 63 53 36 11 343 333 325 325 325 322 311 299 296 293 287
178 179 187 196 196 198 202 211 220 240 247 227 211 214 202 198 186 142 114 99 95 87 82 87 88 93 87 76 66 55 42 13 344 337 331 333 336 337 324 312 306 302 295
179 185 193 186 181 180 176 177 180 175 155 142 131 132 135 126 116 112 113 109 104 98 90 92 93 91 84 81 73 64 44 31 27 0 5 0 357 351 343 331 332 322 312
177 174 172 167 157 160 165 166 157 151 145 143 135 131 126 121 119 124 118 116 112 107 106 99 100 101 96 84 75 68 55 42 36 27 35 31 25 17 359 353 346 334 330